Sioux City, IA

1:49 AM CDT on April 25, 2017 (GMT -0500)
Sioux Gateway

Weather History for KSUX - August, 2014

Change the Weather History Date:

Friday, August 29, 2014

  Actual Average Record
Temperature  
Mean Temperature 71 °F 70 °F  
Max Temperature 77 °F 82 °F 101 °F (2012)
Min Temperature 64 °F 58 °F 40 °F (1946)
Degree Days  
Heating Degree Days 0 1  
Month to date heating degree days 0 7  
Since 1 June heating degree days 26 37  
Since 1 July heating degree days 6 10  
Cooling Degree Days 6 6  
Month to date cooling degree days 244 222  
Year to date cooling degree days 753 767  
Since 1 June cooling degree days 632 703  
Growing Degree Days 22 (Base 50)    
Moisture  
Dew Point 69 °F    
Average Humidity 84    
Maximum Humidity 93    
Minimum Humidity 74    
Precipitation  
Precipitation 0.20 in 0.11 in 3.16 in (1993)
Month to date precipitation 8.95 3.01  
Year to date precipitation 34.46 20.32  
Snow  
Snow 0.00 in 0.00 in 0.00 in ()
Month to date snowfall 0.0 0.0  
Since 1 June snowfall 0.0 0.0  
Since 1 July snowfall 0.0 0.0  
Snow Depth 0.00 in    
Sea Level Pressure  
Sea Level Pressure 29.79 in    
Wind  
Wind Speed 4 mph (SSW)    
Max Wind Speed 13 mph    
Max Gust Speed 19 mph    
Visibility 7 miles    
Events Rain , Thunderstorm    
T = Trace of Precipitation, MM = Missing Value Source: NWS Daily Summary

Daily Weather History Graph

Daily Weather History Graph

Search for Another Location

Airport or City:

Trip Planner

Search our weather history database for the weather conditions in past years. The results will help you decide how hot, cold, wet, or windy it might be!

Date:

Astronomy

Aug. 29, 2014 Rise Set
Actual Time 6:47 AM CDT 8:04 PM CDT
Civil Twilight 6:18 AM CDT 8:33 PM CDT
Nautical Twilight 5:43 AM CDT 9:08 PM CDT
Astronomical Twilight 5:06 AM CDT 9:45 PM CDT
Moon 10:43 AM CDT (8/29) 9:56 PM CDT (8/29)
Length of Visible Light 14h 15m
Length of Day
13h 17m
Waxing Crescent, 15% of the Moon is Illuminated
Aug 29
Waxing Crescent
Sep 2
First Quarter
Sep 8
Full
Sep 15
Last Quarter
Sep 24
New

Hourly Weather History & Observations

Time (CDT) Temp. Dew Point Humidity Pressure Visibility Wind Dir Wind Speed Gust Speed Precip Events Conditions
12:52 AM 72.0 °F 70.0 °F 93% 29.78 in 5.0 mi SE 4.6 mph - N/A   Clear
1:52 AM 73.0 °F 71.1 °F 93% 29.78 in 5.0 mi SSE 8.1 mph - N/A   Mostly Cloudy
2:08 AM 73.0 °F 71.1 °F 93% 29.80 in 6.0 mi SSE 8.1 mph - N/A   Scattered Clouds
3:52 AM 72.0 °F 69.1 °F 91% 29.76 in 10.0 mi South 6.9 mph - N/A   Mostly Cloudy
4:52 AM 71.1 °F 69.1 °F 93% 29.75 in 8.0 mi SE 5.8 mph - N/A   Clear
5:52 AM 71.1 °F 69.1 °F 93% 29.75 in 8.0 mi Calm Calm - N/A   Clear
6:48 AM 71.6 °F 69.8 °F 94% 29.79 in 7.0 mi SE 5.8 mph - N/A   Mostly Cloudy
6:52 AM 71.1 °F 69.1 °F 93% 29.77 in 7.0 mi SE 5.8 mph - N/A   Mostly Cloudy
7:47 AM 71.6 °F 69.8 °F 94% 29.80 in 4.0 mi SSE 5.8 mph - N/A   Mostly Cloudy
7:52 AM 71.1 °F 69.1 °F 93% 29.78 in 4.0 mi SSE 6.9 mph - N/A   Scattered Clouds
8:28 AM 71.1 °F 69.1 °F 93% 29.80 in 5.0 mi SSE 4.6 mph - 0.00 in Rain Light Rain
8:47 AM 71.6 °F 69.8 °F 94% 29.81 in 4.0 mi SSE 5.8 mph - 0.00 in Rain Light Rain
8:52 AM 71.1 °F 70.0 °F 96% 29.79 in 4.0 mi SSE 5.8 mph - 0.00 in Rain Light Rain
9:02 AM 71.1 °F 70.0 °F 96% 29.80 in 4.0 mi SSE 6.9 mph - 0.00 in Rain Light Rain
9:35 AM 72.0 °F 70.0 °F 93% 29.79 in 4.0 mi SSE 5.8 mph - 0.01 in Rain , Thunderstorm Light Thunderstorms and Rain
9:52 AM 71.6 °F 69.8 °F 94% 29.79 in 5.0 mi SSE 4.6 mph - N/A Thunderstorm Mostly Cloudy
9:59 AM 72.0 °F 70.0 °F 93% 29.79 in 5.0 mi South 4.6 mph - 0.00 in Rain Light Rain
10:24 AM 73.0 °F 71.1 °F 93% 29.80 in 6.0 mi SSW 5.8 mph - 0.00 in   Mostly Cloudy
10:52 AM 73.0 °F 70.0 °F 90% 29.80 in 7.0 mi WSW 4.6 mph - 0.00 in Rain Light Rain
11:00 AM 73.0 °F 70.0 °F 90% 29.82 in 7.0 mi SW 3.5 mph - 0.00 in Rain Light Rain
11:15 AM 73.0 °F 70.0 °F 90% 29.82 in 7.0 mi West 3.5 mph - 0.00 in   Overcast
11:25 AM 73.9 °F 70.0 °F 87% 29.82 in 6.0 mi Calm Calm - 0.00 in Rain Light Rain
11:52 AM 73.9 °F 70.0 °F 87% 29.79 in 6.0 mi West 4.6 mph - 0.01 in Rain Light Rain
12:15 PM 73.0 °F 70.0 °F 90% 29.81 in - West 6.9 mph - 0.01 in Rain , Thunderstorm Light Thunderstorms and Rain
12:22 PM 72.0 °F 70.0 °F 93% 29.81 in 4.0 mi WSW 8.1 mph - 0.01 in Rain , Thunderstorm Light Thunderstorms and Rain
12:28 PM 72.0 °F 70.0 °F 93% 29.82 in 1.8 mi WSW 10.4 mph - 0.02 in Rain , Thunderstorm Light Thunderstorms and Rain
12:43 PM 72.0 °F 70.0 °F 93% 29.81 in 2.0 mi Variable 3.5 mph - 0.15 in Rain , Thunderstorm Thunderstorms and Rain
12:52 PM 72.0 °F 70.0 °F 93% 29.77 in 3.0 mi North 4.6 mph - 0.16 in Rain , Thunderstorm Light Thunderstorms and Rain
1:11 PM 73.9 °F 70.0 °F 87% 29.80 in 3.0 mi NNW 4.6 mph - 0.00 in Thunderstorm Partly Cloudy
1:25 PM 73.9 °F 69.1 °F 85% 29.81 in 3.0 mi WNW 4.6 mph - 0.00 in   Partly Cloudy
1:52 PM 73.9 °F 68.0 °F 82% 29.78 in 10.0 mi NNW 4.6 mph - 0.00 in   Unknown
2:52 PM 73.9 °F 66.9 °F 79% 29.78 in 10.0 mi Calm Calm - N/A   Mostly Cloudy
3:52 PM 75.0 °F 66.9 °F 76% 29.75 in 10.0 mi West 5.8 mph - N/A   Mostly Cloudy
4:52 PM 73.4 °F 66.2 °F 78% 29.76 in 10.0 mi NW 3.5 mph - N/A   Mostly Cloudy
5:52 PM 73.9 °F 68.0 °F 82% 29.75 in 10.0 mi Calm Calm - 0.00 in   Mostly Cloudy
6:52 PM 73.9 °F 69.1 °F 85% 29.76 in 10.0 mi Calm Calm - N/A   Overcast
7:52 PM 72.0 °F 70.0 °F 93% 29.75 in 9.0 mi South 3.5 mph - 0.01 in Rain Light Rain
8:38 PM 71.1 °F 69.1 °F 93% 29.79 in 10.0 mi Calm Calm - 0.01 in   Partly Cloudy
8:48 PM 71.6 °F 69.8 °F 94% 29.80 in 10.0 mi Calm Calm - 0.01 in   Mostly Cloudy
8:52 PM 70.0 °F 68.0 °F 93% 29.78 in 10.0 mi Calm Calm - 0.01 in   Mostly Cloudy
9:03 PM 70.0 °F 66.9 °F 90% 29.80 in 10.0 mi SE 4.6 mph - N/A   Scattered Clouds
9:26 PM 69.1 °F 68.0 °F 96% 29.82 in 6.0 mi WSW 4.6 mph - N/A   Mostly Cloudy
9:35 PM 69.1 °F 68.0 °F 96% 29.82 in 7.0 mi West 3.5 mph - N/A   Mostly Cloudy
9:43 PM 68.0 °F 66.0 °F 93% 29.83 in 9.0 mi WNW 4.6 mph - N/A   Mostly Cloudy
9:52 PM 68.0 °F 66.2 °F 94% 29.83 in 10.0 mi WNW 5.8 mph - N/A   Overcast
10:07 PM 66.2 °F 64.4 °F 94% 29.82 in 10.0 mi Calm Calm - N/A   Scattered Clouds
10:52 PM 66.0 °F 64.0 °F 93% 29.80 in 10.0 mi SW 5.8 mph - N/A   Clear
11:52 PM 66.0 °F 64.9 °F 96% 29.81 in 10.0 mi Calm Calm - N/A   Clear